﻿_id,日時,平均風速(m/s),平均風向,最大瞬間風速(m/s),最大風速時風向,気温(℃),湿度(%),10分間移動積算雨量(mm),1時間移動積算雨量(mm),日雨量(mm),累計雨量(mm),日射(日積算)(MJ/m2),日照(日積算)(min),現地気圧(hPa),海面気圧(hPa)
1,2024-05-20T00:00:00,1.7,西,2.6,西,14.4,98.6,0.5,2,2,2,6.86,24,1003.7,1017.6
2,2024-05-20T00:01:00,1.7,西,2.6,西,14.4,98.6,0.5,2,0,2,0,0,1003.7,1017.6
3,2024-05-20T00:02:00,1.7,西,2.6,西,14.5,98.7,0,2,0,2,0,0,1003.7,1017.6
4,2024-05-20T00:03:00,1.7,西,2.6,西,14.5,98.7,0.5,2.5,0.5,2.5,0,0,1003.7,1017.6
5,2024-05-20T00:04:00,1.7,西,2.6,西,14.5,98.8,0.5,2.5,0.5,2.5,0,0,1003.6,1017.5
6,2024-05-20T00:05:00,1.6,西,2.6,西,14.3,98.6,0.5,2.5,0.5,2.5,0,0,1003.6,1017.5
7,2024-05-20T00:06:00,1.5,西,2.4,西,14.3,98.6,0.5,2.5,0.5,2.5,0,0,1003.7,1017.6
8,2024-05-20T00:07:00,1.6,西,2.6,西南西,14.3,98.6,0.5,2.5,0.5,2.5,0,0,1003.7,1017.6
9,2024-05-20T00:08:00,1.5,西,2.6,西南西,14.2,98.6,0.5,2.5,0.5,2.5,0,0,1003.7,1017.6
10,2024-05-20T00:09:00,1.5,西,2.6,西南西,14.3,98.6,0.5,2.5,0.5,2.5,0,0,1003.7,1017.6
11,2024-05-20T00:10:00,1.4,西,2.6,西南西,14.3,98.7,0.5,2.5,0.5,2.5,0,0,1003.7,1017.6
12,2024-05-20T00:11:00,1.5,西,2.6,西南西,14.2,98.7,0.5,2.5,0.5,2.5,0,0,1003.6,1017.5
13,2024-05-20T00:12:00,1.6,西,2.7,西,14.3,98.7,0.5,2.5,0.5,2.5,0,0,1003.5,1017.4
14,2024-05-20T00:13:00,1.7,西,2.7,西,14.4,98.8,0,2.5,0.5,2.5,0,0,1003.5,1017.4
15,2024-05-20T00:14:00,1.7,西,2.7,西,14.3,98.8,0,2.5,0.5,2.5,0,0,1003.5,1017.4
16,2024-05-20T00:15:00,1.8,西,2.7,西,14.3,98.7,0,2.5,0.5,2.5,0,0,1003.4,1017.3
17,2024-05-20T00:16:00,1.7,西,2.7,西,14.4,98.8,0,2.5,0.5,2.5,0,0,1003.4,1017.3
18,2024-05-20T00:17:00,1.7,西,2.7,西,14.4,98.8,0,2.5,0.5,2.5,0,0,1003.4,1017.3
19,2024-05-20T00:18:00,1.7,西,2.7,西,14.4,98.9,0,2.5,0.5,2.5,0,0,1003.4,1017.3
20,2024-05-20T00:19:00,1.7,西,2.7,西,14.4,98.8,0,2.5,0.5,2.5,0,0,1003.4,1017.3
21,2024-05-20T00:20:00,1.7,西,2.7,西,14.4,98.9,0,2.5,0.5,2.5,0,0,1003.4,1017.3
22,2024-05-20T00:21:00,1.7,西,2.7,西,14.4,98.8,0,2.5,0.5,2.5,0,0,1003.4,1017.3
23,2024-05-20T00:22:00,1.7,西,2.7,西南西,14.5,98.8,0,2.5,0.5,2.5,0,0,1003.3,1017.2
24,2024-05-20T00:23:00,1.6,西,2.7,西南西,14.3,98.8,0,2.5,0.5,2.5,0,0,1003.3,1017.2
25,2024-05-20T00:24:00,1.5,西,2.5,西,14.3,98.7,0,2.5,0.5,2.5,0,0,1003.3,1017.2
26,2024-05-20T00:25:00,1.5,西,2.5,西,14.4,98.8,0,2.5,0.5,2.5,0,0,1003.2,1017.1
27,2024-05-20T00:26:00,1.5,西,2.5,西,14.3,98.8,0,2.5,0.5,2.5,0,0,1003.2,1017.1
28,2024-05-20T00:27:00,1.5,西,2.5,西,14.5,98.8,0,2.5,0.5,2.5,0,0,1003.2,1017.1
29,2024-05-20T00:28:00,1.5,西,2.5,西,14.4,98.9,0,2.5,0.5,2.5,0,0,1003.1,1017
30,2024-05-20T00:29:00,1.4,西,2.5,西,14.3,98.8,0,2.5,0.5,2.5,0,0,1003.1,1017
31,2024-05-20T00:30:00,1.4,西,2.5,西,14.4,98.8,0,2.5,0.5,2.5,0,0,1003.1,1017
32,2024-05-20T00:31:00,1.4,西,2.5,西,14.5,99,0,2.5,0.5,2.5,0,0,1003.1,1017
33,2024-05-20T00:32:00,1.3,西,2.5,西,14.4,98.9,0,2.5,0.5,2.5,0,0,1003.1,1017
34,2024-05-20T00:33:00,1.3,西,2.5,西,14.6,99,0,2.5,0.5,2.5,0,0,1003.1,1017
35,2024-05-20T00:34:00,1.3,西,2.4,西,14.5,99,0,2,0.5,2.5,0,0,1003,1016.9
36,2024-05-20T00:35:00,1.4,西,2.4,西,14.4,98.8,0,2,0.5,2.5,0,0,1003,1016.9
37,2024-05-20T00:36:00,1.4,西,2.4,西北西,14.4,98.7,0,2,0.5,2.5,0,0,1003,1016.9
38,2024-05-20T00:37:00,1.5,西,2.5,西北西,14.4,98.8,0,2,0.5,2.5,0,0,1002.9,1016.8
39,2024-05-20T00:38:00,1.6,西,2.5,西北西,14.4,98.8,0,2,0.5,2.5,0,0,1002.9,1016.8
40,2024-05-20T00:39:00,1.6,西,2.5,西北西,14.4,98.8,0,2,0.5,2.5,0,0,1002.8,1016.7
41,2024-05-20T00:40:00,1.7,西北西,2.5,西北西,14.4,98.7,0,2,0.5,2.5,0,0,1002.8,1016.7
42,2024-05-20T00:41:00,1.7,西北西,2.5,西北西,14.4,98.8,0,1.5,0.5,2.5,0,0,1002.7,1016.6
43,2024-05-20T00:42:00,1.8,西北西,2.5,西北西,14.5,98.8,0,1.5,0.5,2.5,0,0,1002.8,1016.7
44,2024-05-20T00:43:00,1.7,西北西,2.5,西北西,14.6,98.9,0,1.5,0.5,2.5,0,0,1002.8,1016.7
45,2024-05-20T00:44:00,1.7,西北西,2.5,西北西,14.6,98.8,0,1.5,0.5,2.5,0,0,1002.8,1016.7
46,2024-05-20T00:45:00,1.6,西北西,2.5,西北西,14.6,98.7,0,1.5,0.5,2.5,0,0,1002.8,1016.7
47,2024-05-20T00:46:00,1.4,西北西,2.5,西北西,14.5,98.7,0,1,0.5,2.5,0,0,1002.8,1016.7
48,2024-05-20T00:47:00,1.3,西北西,2.4,西北西,14.6,98.7,0,1,0.5,2.5,0,0,1002.8,1016.7
49,2024-05-20T00:48:00,1.1,北西,2.4,西北西,14.6,98.7,0,1,0.5,2.5,0,0,1002.7,1016.6
50,2024-05-20T00:49:00,1,北西,2.2,西北西,14.7,98.7,0,1,0.5,2.5,0,0,1002.7,1016.6
51,2024-05-20T00:50:00,0.8,北西,1.8,西北西,14.8,98.8,0,1,0.5,2.5,0,0,1002.6,1016.5
52,2024-05-20T00:51:00,0.7,北西,1.7,北西,14.7,98.7,0,1,0.5,2.5,0,0,1002.6,1016.5
53,2024-05-20T00:52:00,0.6,北北西,1.5,北西,14.5,98.5,0,0.5,0.5,2.5,0,0,1002.5,1016.4
54,2024-05-20T00:53:00,0.5,北北西,1.4,西,14.6,98.5,0,0.5,0.5,2.5,0,0,1002.5,1016.4
55,2024-05-20T00:54:00,0.4,北北西,1.3,西北西,14.7,98.6,0,0.5,0.5,2.5,0,0,1002.5,1016.4
56,2024-05-20T00:55:00,0.4,北,1.1,東,14.6,98.7,0,0.5,0.5,2.5,0,0,1002.4,1016.3
57,2024-05-20T00:56:00,0.4,北,1.1,東,14.7,98.6,0,0.5,0.5,2.5,0,0,1002.3,1016.2
58,2024-05-20T00:57:00,0.4,北,1.4,北東,14.7,98.7,0,0.5,0.5,2.5,0,0,1002.3,1016.2
59,2024-05-20T00:58:00,0.5,北北東,1.4,北東,14.8,98.7,0,0.5,0.5,2.5,0,0,1002.3,1016.2
60,2024-05-20T00:59:00,0.5,北北東,1.4,北東,14.7,98.7,0.5,1,1,3,0,0,1002.2,1016.1
61,2024-05-20T01:00:00,0.6,北北東,1.4,北東,14.8,98.7,0.5,1,1,3,0,0,1002.2,1016.1
62,2024-05-20T01:01:00,0.6,北北東,1.4,北東,14.8,98.7,0.5,1,1,3,0,0,1002.1,1016
63,2024-05-20T01:02:00,0.7,北北東,1.4,北東,14.8,98.7,0.5,1,1,3,0,0,1002,1015.9
64,2024-05-20T01:03:00,0.7,北北東,1.4,北東,14.7,98.7,0.5,0.5,1,3,0,0,1002,1015.9
65,2024-05-20T01:04:00,0.8,北東,1.4,北東,14.8,98.8,0.5,0.5,1,3,0,0,1001.9,1015.8
66,2024-05-20T01:05:00,0.8,北北東,1.4,北東,14.8,98.8,0.5,0.5,1,3,0,0,1001.9,1015.8
67,2024-05-20T01:06:00,0.8,北北東,1.5,北北東,14.8,98.8,0.5,0.5,1,3,0,0,1001.9,1015.8
68,2024-05-20T01:07:00,0.8,北北東,1.5,北北東,14.9,98.7,0.5,0.5,1,3,0,0,1001.9,1015.8
69,2024-05-20T01:08:00,0.8,北北東,1.5,北北東,14.9,98.8,0.5,0.5,1,3,0,0,1001.9,1015.8
70,2024-05-20T01:09:00,0.8,北北東,1.5,北北東,14.7,98.7,0,0.5,1,3,0,0,1001.8,1015.7
71,2024-05-20T01:10:00,0.7,北北東,1.5,北北東,14.8,98.6,0,0.5,1,3,0,0,1001.9,1015.8
72,2024-05-20T01:11:00,0.8,北北東,1.5,北北東,14.8,98.8,0,0.5,1,3,0,0,1001.8,1015.7
73,2024-05-20T01:12:00,0.7,北北東,1.5,北北東,14.7,98.7,0,0.5,1,3,0,0,1001.8,1015.7
74,2024-05-20T01:13:00,0.7,北北東,1.5,北北東,14.7,98.7,0,0.5,1,3,0,0,1001.7,1015.6
75,2024-05-20T01:14:00,0.8,北北東,1.5,北北東,14.7,98.7,0,0.5,1,3,0,0,1001.7,1015.6
76,2024-05-20T01:15:00,0.8,北北東,1.5,北北東,14.9,98.8,0,0.5,1,3,0,0,1001.7,1015.5
77,2024-05-20T01:16:00,0.8,北東,1.4,北,14.9,98.9,0,0.5,1,3,0,0,1001.7,1015.5
78,2024-05-20T01:17:00,0.8,北東,1.2,北東,14.7,98.7,0.5,1,1.5,3.5,0,0,1001.6,1015.5
79,2024-05-20T01:18:00,0.7,北東,1.2,北東,14.7,98.6,0.5,1,1.5,3.5,0,0,1001.6,1015.5
80,2024-05-20T01:19:00,0.7,北東,1.2,北東,14.7,98.8,0.5,1,1.5,3.5,0,0,1001.5,1015.4
81,2024-05-20T01:20:00,0.7,北東,1.2,北東,14.8,98.7,0.5,1,1.5,3.5,0,0,1001.5,1015.3
82,2024-05-20T01:21:00,0.7,北東,1.2,北東,14.8,98.8,0.5,1,1.5,3.5,0,0,1001.5,1015.3
83,2024-05-20T01:22:00,0.7,北東,1.2,北東,14.7,98.8,0.5,1,1.5,3.5,0,0,1001.5,1015.4
84,2024-05-20T01:23:00,0.6,北東,1.1,北,14.6,98.6,0.5,1,1.5,3.5,0,0,1001.5,1015.4
85,2024-05-20T01:24:00,0.5,北東,1.1,北,14.5,98.6,0.5,1,1.5,3.5,0,0,1001.5,1015.4
86,2024-05-20T01:25:00,0.4,北東,1.1,北,14.6,98.6,0.5,1,1.5,3.5,0,0,1001.5,1015.4
87,2024-05-20T01:26:00,0.4,北東,1.1,北,14.4,98.5,0.5,1,1.5,3.5,0,0,1001.5,1015.4
88,2024-05-20T01:27:00,0.3,北東,1.1,北,14.5,98.5,0.5,1.5,2,4,0,0,1001.6,1015.5
89,2024-05-20T01:28:00,0.3,北東,1.1,北,14.5,98.6,0.5,1.5,2,4,0,0,1001.6,1015.5
90,2024-05-20T01:29:00,0.2,静穏,1.1,北,14.5,98.6,0.5,1.5,2,4,0,0,1001.5,1015.4
91,2024-05-20T01:30:00,0.2,静穏,1.1,北,14.4,98.6,0.5,1.5,2,4,0,0,1001.5,1015.4
92,2024-05-20T01:31:00,0.2,静穏,0.7,西北西,14.6,98.7,0.5,1.5,2,4,0,0,1001.5,1015.4
93,2024-05-20T01:32:00,0.2,静穏,0.7,西北西,14.8,98.9,0.5,1.5,2,4,0,0,1001.6,1015.5
94,2024-05-20T01:33:00,0.1,静穏,0.7,西北西,14.6,98.8,0.5,1.5,2,4,0,0,1001.5,1015.4
95,2024-05-20T01:34:00,0.2,静穏,0.8,西北西,14.5,98.8,0.5,1.5,2,4,0,0,1001.5,1015.4
96,2024-05-20T01:35:00,0.2,静穏,1.1,西,14.6,98.7,0.5,1.5,2,4,0,0,1001.5,1015.4
97,2024-05-20T01:36:00,0.3,西北西,1.1,西,14.6,98.8,0.5,1.5,2,4,0,0,1001.4,1015.3
98,2024-05-20T01:37:00,0.3,西北西,1.1,西,14.6,98.8,0,1.5,2,4,0,0,1001.4,1015.3
99,2024-05-20T01:38:00,0.3,西北西,1.1,西,14.6,98.8,0,1.5,2,4,0,0,1001.4,1015.3
100,2024-05-20T01:39:00,0.3,西北西,1.1,西,14.6,98.8,0,1.5,2,4,0,0,1001.3,1015.2
101,2024-05-20T01:40:00,0.4,西北西,1.1,西,14.7,98.9,0.5,2,2.5,4.5,0,0,1001.3,1015.2
102,2024-05-20T01:41:00,0.4,西北西,1.1,西,14.7,98.8,0.5,2,2.5,4.5,0,0,1001.3,1015.2
103,2024-05-20T01:42:00,0.4,西,1.3,西,14.5,98.9,0.5,2,2.5,4.5,0,0,1001.2,1015.1
104,2024-05-20T01:43:00,0.5,西北西,1.3,西,14.4,98.7,0.5,2,2.5,4.5,0,0,1001.2,1015.1
105,2024-05-20T01:44:00,0.5,西北西,1.3,西,14.4,98.6,0.5,2,2.5,4.5,0,0,1001.2,1015.1
106,2024-05-20T01:45:00,0.5,西北西,1.3,西,14.4,98.7,0.5,2,2.5,4.5,0,0,1001.3,1015.2
107,2024-05-20T01:46:00,0.5,西北西,1.4,西北西,14.4,98.6,0.5,2,2.5,4.5,0,0,1001.2,1015.1
108,2024-05-20T01:47:00,0.5,西北西,1.4,西北西,14.3,98.7,0.5,2,2.5,4.5,0,0,1001.2,1015.1
109,2024-05-20T01:48:00,0.6,西,1.4,西北西,14.3,98.6,0.5,2,2.5,4.5,0,0,1001.2,1015.1
110,2024-05-20T01:49:00,0.7,西,1.4,西北西,14.4,98.7,0.5,2,2.5,4.5,0,0,1001.2,1015.1
111,2024-05-20T01:50:00,0.7,西,1.4,西北西,14.5,98.7,0,2,2.5,4.5,0,0,1001.2,1015.1
112,2024-05-20T01:51:00,0.7,西北西,1.6,西北西,14.5,98.8,0,2,2.5,4.5,0,0,1001.2,1015.1
113,2024-05-20T01:52:00,0.7,西北西,1.6,西北西,14.5,98.8,0,2,2.5,4.5,0,0,1001.3,1015.2
114,2024-05-20T01:53:00,0.7,西北西,1.6,西北西,14.4,98.6,0,2,2.5,4.5,0,0,1001.2,1015.1
115,2024-05-20T01:54:00,0.7,西,1.6,西北西,14.5,98.6,0,2,2.5,4.5,0,0,1001.2,1015.1
116,2024-05-20T01:55:00,0.7,西北西,1.6,西北西,14.5,98.7,0,2,2.5,4.5,0,0,1001.2,1015.1
117,2024-05-20T01:56:00,0.7,西,1.6,西北西,14.4,98.6,0,2,2.5,4.5,0,0,1001.2,1015.1
118,2024-05-20T01:57:00,0.6,西北西,1.6,西北西,14.3,98.6,0,2,2.5,4.5,0,0,1001.2,1015.1
119,2024-05-20T01:58:00,0.6,西,1.6,西北西,14.4,98.7,0,2,2.5,4.5,0,0,1001.1,1015
120,2024-05-20T01:59:00,0.6,西,1.6,西北西,14.3,98.5,0,1.5,2.5,4.5,0,0,1001.1,1015
121,2024-05-20T02:00:00,0.6,西,1.6,西北西,14.3,98.6,0,1.5,2.5,4.5,0,0,1001.1,1015
122,2024-05-20T02:01:00,0.6,西,1.6,西北西,14.5,98.6,0,1.5,2.5,4.5,0,0,1001.1,1015
123,2024-05-20T02:02:00,0.6,西,1.5,西,14.4,98.6,0,1.5,2.5,4.5,0,0,1001.1,1015
124,2024-05-20T02:03:00,0.6,西,1.5,西,14.3,98.5,0,1.5,2.5,4.5,0,0,1001.1,1015
125,2024-05-20T02:04:00,0.7,西,1.6,西南西,14.2,98.5,0,1.5,2.5,4.5,0,0,1001,1014.9
126,2024-05-20T02:05:00,0.7,西,1.6,西南西,14.3,98.5,0,1.5,2.5,4.5,0,0,1001,1014.9
127,2024-05-20T02:06:00,0.7,西,1.6,西南西,14.3,98.6,0,1.5,2.5,4.5,0,0,1001,1014.9
128,2024-05-20T02:07:00,0.7,西南西,1.6,西南西,14.4,98.6,0,1.5,2.5,4.5,0,0,1000.9,1014.8
129,2024-05-20T02:08:00,0.7,西,1.6,西南西,14.2,98.5,0,1.5,2.5,4.5,0,0,1000.9,1014.8
130,2024-05-20T02:09:00,0.8,西,1.6,西南西,14.3,98.5,0,1.5,2.5,4.5,0,0,1000.8,1014.7
131,2024-05-20T02:10:00,0.8,西,1.6,西南西,14.4,98.6,0,1.5,2.5,4.5,0,0,1000.8,1014.7
132,2024-05-20T02:11:00,0.8,西,1.6,西南西,14.4,98.7,0,1.5,2.5,4.5,0,0,1000.8,1014.7
133,2024-05-20T02:12:00,0.7,西南西,1.6,西南西,14.4,98.6,0,1.5,2.5,4.5,0,0,1000.9,1014.8
134,2024-05-20T02:13:00,0.8,西,1.6,西南西,14.5,98.6,0,1.5,2.5,4.5,0,0,1000.9,1014.8
135,2024-05-20T02:14:00,0.7,西南西,1.4,西南西,14.3,98.7,0,1.5,2.5,4.5,0,0,1000.9,1014.8
136,2024-05-20T02:15:00,0.8,西南西,1.6,西南西,14.3,98.6,0,1.5,2.5,4.5,0,0,1000.9,1014.8
137,2024-05-20T02:16:00,0.9,西南西,1.7,西南西,14.2,98.4,0,1.5,2.5,4.5,0,0,1000.9,1014.8
138,2024-05-20T02:17:00,0.9,西南西,1.7,西南西,14.3,98.4,0,1,2.5,4.5,0,0,1000.9,1014.8
139,2024-05-20T02:18:00,1,西南西,1.7,西南西,14.3,98.5,0,1,2.5,4.5,0,0,1000.9,1014.8
140,2024-05-20T02:19:00,1,西南西,1.8,南西,14.2,98.5,0,1,2.5,4.5,0,0,1000.9,1014.8
141,2024-05-20T02:20:00,1,西南西,1.8,南西,14.2,98.4,0,1,2.5,4.5,0,0,1000.9,1014.8
142,2024-05-20T02:21:00,1.1,西南西,1.8,南西,14.4,98.5,0,1,2.5,4.5,0,0,1000.9,1014.8
143,2024-05-20T02:22:00,1.1,西南西,1.8,南西,14.3,98.4,0,1,2.5,4.5,0,0,1000.9,1014.8
144,2024-05-20T02:23:00,1.1,西南西,1.8,南西,14.2,98.3,0,1,2.5,4.5,0,0,1001,1014.9
145,2024-05-20T02:24:00,1.1,西南西,1.8,南西,14.4,98.3,0,1,2.5,4.5,0,0,1001,1014.9
146,2024-05-20T02:25:00,1.1,西南西,1.8,南西,14.4,98.5,0,1,2.5,4.5,0,0,1001,1014.9
147,2024-05-20T02:26:00,1,西南西,1.8,南西,14.4,98.5,0,1,2.5,4.5,0,0,1001,1014.9
148,2024-05-20T02:27:00,1.1,西南西,1.8,南西,14.3,98.4,0,0.5,2.5,4.5,0,0,1000.9,1014.8
149,2024-05-20T02:28:00,1,西南西,1.8,南西,14.5,98.5,0,0.5,2.5,4.5,0,0,1001,1014.9
150,2024-05-20T02:29:00,1,西南西,1.7,西南西,14.3,98.3,0,0.5,2.5,4.5,0,0,1001,1014.9
151,2024-05-20T02:30:00,1,西南西,1.7,西南西,14.3,98.2,0,0.5,2.5,4.5,0,0,1001,1014.9
152,2024-05-20T02:31:00,0.9,南西,1.7,西南西,14.3,98.3,0,0.5,2.5,4.5,0,0,1001,1014.9
153,2024-05-20T02:32:00,0.8,南西,1.7,西南西,14.3,98.3,0,0.5,2.5,4.5,0,0,1001,1014.9
154,2024-05-20T02:33:00,0.8,南西,1.7,西南西,14.3,98.3,0,0.5,2.5,4.5,0,0,1001,1014.9
155,2024-05-20T02:34:00,0.7,南西,1.7,西南西,14.3,98.3,0,0.5,2.5,4.5,0,0,1001,1014.9
156,2024-05-20T02:35:00,0.7,南西,1.7,西南西,14.5,98.5,0,0.5,2.5,4.5,0,0,1001,1014.9
157,2024-05-20T02:36:00,0.7,南西,1.7,西南西,14.4,98.5,0,0.5,2.5,4.5,0,0,1001,1014.9
158,2024-05-20T02:37:00,0.7,南西,1.5,西,14.3,98.3,0,0.5,2.5,4.5,0,0,1000.9,1014.8
159,2024-05-20T02:38:00,0.6,南西,1.3,西南西,14.4,98.5,0,0.5,2.5,4.5,0,0,1000.8,1014.7
160,2024-05-20T02:39:00,0.6,南西,1.2,南南西,14.5,98.5,0,0.5,2.5,4.5,0,0,1000.8,1014.7
161,2024-05-20T02:40:00,0.6,南西,1.2,南南西,14.5,98.5,0,0,2.5,4.5,0,0,1000.8,1014.7
162,2024-05-20T02:41:00,0.6,西南西,1.1,南西,14.6,98.5,0,0,2.5,4.5,0,0,1000.8,1014.6
163,2024-05-20T02:42:00,0.6,西南西,1.1,南西,14.6,98.6,0,0,2.5,4.5,0,0,1000.8,1014.6
164,2024-05-20T02:43:00,0.6,西南西,1,西北西,14.4,98.4,0,0,2.5,4.5,0,0,1000.8,1014.7
165,2024-05-20T02:44:00,0.6,西南西,1.2,南西,14.4,98.3,0,0,2.5,4.5,0,0,1000.8,1014.7
166,2024-05-20T02:45:00,0.6,西南西,1.2,南西,14.4,98.3,0,0,2.5,4.5,0,0,1000.9,1014.8
167,2024-05-20T02:46:00,0.6,西南西,1.5,西南西,14.4,98.3,0,0,2.5,4.5,0,0,1000.9,1014.8
168,2024-05-20T02:47:00,0.6,西南西,1.5,西南西,14.6,98.4,0,0,2.5,4.5,0,0,1000.9,1014.8
169,2024-05-20T02:48:00,0.5,西南西,1.5,西南西,14.6,98.5,0,0,2.5,4.5,0,0,1000.9,1014.8
170,2024-05-20T02:49:00,0.6,西,1.5,西南西,14.7,98.5,0,0,2.5,4.5,0,0,1000.8,1014.6
171,2024-05-20T02:50:00,0.6,西,1.5,西南西,14.6,98.4,0,0,2.5,4.5,0,0,1000.8,1014.6
172,2024-05-20T02:51:00,0.7,西,1.5,西南西,14.6,98.3,0,0,2.5,4.5,0,0,1000.8,1014.6
173,2024-05-20T02:52:00,0.7,西,1.5,西南西,14.6,98.4,0,0,2.5,4.5,0,0,1000.8,1014.6
174,2024-05-20T02:53:00,0.8,西,1.5,西南西,14.5,98.2,0,0,2.5,4.5,0,0,1000.8,1014.7
175,2024-05-20T02:54:00,0.8,西,1.8,西北西,14.5,98.2,0,0,2.5,4.5,0,0,1000.8,1014.7
176,2024-05-20T02:55:00,0.9,西,1.8,西北西,14.5,98.3,0,0,2.5,4.5,0,0,1000.8,1014.7
177,2024-05-20T02:56:00,0.9,西北西,1.8,西北西,14.5,98.3,0,0,2.5,4.5,0,0,1000.8,1014.7
178,2024-05-20T02:57:00,1,西北西,1.8,西北西,14.6,98.4,0,0,2.5,4.5,0,0,1000.8,1014.6
179,2024-05-20T02:58:00,1.1,西北西,1.8,西北西,14.6,98.3,0,0,2.5,4.5,0,0,1000.8,1014.6
180,2024-05-20T02:59:00,1.2,西北西,1.8,西北西,14.6,98.4,0,0,2.5,4.5,0,0,1000.7,1014.5
181,2024-05-20T03:00:00,1.2,西北西,1.8,西北西,14.7,98.3,0,0,2.5,4.5,0,0,1000.7,1014.5
182,2024-05-20T03:01:00,1.1,西北西,1.8,西北西,14.7,98.3,0,0,2.5,4.5,0,0,1000.7,1014.5
183,2024-05-20T03:02:00,1.1,北西,1.8,西北西,14.7,98.3,0,0,2.5,4.5,0,0,1000.7,1014.5
184,2024-05-20T03:03:00,1,北西,1.8,西北西,14.8,98.4,0,0,2.5,4.5,0,0,1000.6,1014.4
185,2024-05-20T03:04:00,0.9,北西,1.6,北西,14.8,98.4,0,0,2.5,4.5,0,0,1000.7,1014.5
186,2024-05-20T03:05:00,0.9,北西,1.6,北西,14.6,98.3,0,0,2.5,4.5,0,0,1000.7,1014.5
187,2024-05-20T03:06:00,0.8,北西,1.6,北西,14.8,98.3,0,0,2.5,4.5,0,0,1000.7,1014.5
188,2024-05-20T03:07:00,0.8,北西,1.6,北西,14.8,98.3,0,0,2.5,4.5,0,0,1000.7,1014.5
189,2024-05-20T03:08:00,0.7,北北西,1.6,北西,14.8,98.4,0,0,2.5,4.5,0,0,1000.6,1014.4
190,2024-05-20T03:09:00,0.7,北北西,1.5,北西,14.8,98.3,0,0,2.5,4.5,0,0,1000.7,1014.5
191,2024-05-20T03:10:00,0.7,北北西,1.4,北西,14.8,98.2,0,0,2.5,4.5,0,0,1000.7,1014.5
192,2024-05-20T03:11:00,0.8,北北西,1.5,北西,14.7,98.2,0,0,2.5,4.5,0,0,1000.8,1014.6
193,2024-05-20T03:12:00,0.8,北西,1.5,北西,14.7,98.2,0,0,2.5,4.5,0,0,1000.8,1014.6
194,2024-05-20T03:13:00,0.9,北西,1.5,北西,14.8,98.2,0,0,2.5,4.5,0,0,1000.8,1014.6
195,2024-05-20T03:14:00,0.9,北西,1.6,西北西,14.9,98.4,0,0,2.5,4.5,0,0,1000.8,1014.6
196,2024-05-20T03:15:00,1,北西,1.7,北西,15,98.4,0,0,2.5,4.5,0,0,1000.8,1014.6
197,2024-05-20T03:16:00,1,北西,1.7,北西,15,98.4,0,0,2.5,4.5,0,0,1000.8,1014.6
198,2024-05-20T03:17:00,1,北西,1.7,北西,14.9,98.2,0,0,2.5,4.5,0,0,1000.8,1014.6
199,2024-05-20T03:18:00,0.9,北北西,1.7,北西,14.8,98.2,0,0,2.5,4.5,0,0,1000.8,1014.6
200,2024-05-20T03:19:00,0.9,北北西,1.7,北西,14.7,98,0,0,2.5,4.5,0,0,1000.7,1014.5
201,2024-05-20T03:20:00,0.8,北北西,1.7,北西,14.7,98.1,0,0,2.5,4.5,0,0,1000.7,1014.5
202,2024-05-20T03:21:00,0.8,北北西,1.7,北西,14.8,98.3,0,0,2.5,4.5,0,0,1000.8,1014.6
203,2024-05-20T03:22:00,0.7,北,1.7,北西,14.8,98.3,0,0,2.5,4.5,0,0,1000.8,1014.6
204,2024-05-20T03:23:00,0.6,北,1.7,北西,14.6,98.1,0,0,2.5,4.5,0,0,1000.8,1014.6
205,2024-05-20T03:24:00,0.5,北,1.7,北西,14.6,98.2,0,0,2.5,4.5,0,0,1000.8,1014.6
206,2024-05-20T03:25:00,0.4,北,1.4,北西,14.7,98.2,0,0,2.5,4.5,0,0,1000.8,1014.6
207,2024-05-20T03:26:00,0.3,北,1.2,北西,14.5,98.2,0,0,2.5,4.5,0,0,1000.8,1014.7
208,2024-05-20T03:27:00,0.3,北,0.8,北北東,14.5,98.2,0,0,2.5,4.5,0,0,1000.8,1014.7
209,2024-05-20T03:28:00,0.2,静穏,0.8,北北東,14.5,98.3,0,0,2.5,4.5,0,0,1000.8,1014.7
210,2024-05-20T03:29:00,0.2,静穏,0.8,北北東,14.4,98.2,0,0,2.5,4.5,0,0,1000.8,1014.7
211,2024-05-20T03:30:00,0.2,静穏,0.8,北北東,14.6,98.3,0,0,2.5,4.5,0,0,1000.8,1014.6
212,2024-05-20T03:31:00,0.2,静穏,0.6,南南西,14.6,98.4,0,0,2.5,4.5,0,0,1000.8,1014.6
213,2024-05-20T03:32:00,0.2,静穏,0.6,南南西,14.4,98.3,0,0,2.5,4.5,0,0,1000.8,1014.7
214,2024-05-20T03:33:00,0.2,静穏,0.8,南南西,14.4,98.2,0,0,2.5,4.5,0,0,1000.9,1014.8
215,2024-05-20T03:34:00,0.2,静穏,0.8,南南西,14.4,98.3,0,0,2.5,4.5,0,0,1000.9,1014.8
216,2024-05-20T03:35:00,0.2,静穏,0.8,南南西,14.5,98.3,0,0,2.5,4.5,0,0,1000.9,1014.8
217,2024-05-20T03:36:00,0.2,静穏,0.8,南南西,14.6,98.4,0,0,2.5,4.5,0,0,1000.9,1014.8
218,2024-05-20T03:37:00,0.2,静穏,0.8,南南西,14.5,98.3,0,0,2.5,4.5,0,0,1000.9,1014.8
219,2024-05-20T03:38:00,0.2,静穏,0.8,南南西,14.4,98.3,0,0,2.5,4.5,0,0,1000.9,1014.8
220,2024-05-20T03:39:00,0.2,静穏,0.8,南南西,14.5,98.3,0,0,2.5,4.5,0,0,1000.9,1014.8
221,2024-05-20T03:40:00,0.3,南西,0.8,南南西,14.4,98.2,0,0,2.5,4.5,0,0,1000.9,1014.8
222,2024-05-20T03:41:00,0.3,南西,0.8,南南西,14.3,98.2,0,0,2.5,4.5,0,0,1000.9,1014.8
223,2024-05-20T03:42:00,0.4,南西,1.2,南,14.4,98.3,0,0,2.5,4.5,0,0,1001,1014.9
224,2024-05-20T03:43:00,0.4,南西,1.2,南,14.5,98.4,0,0,2.5,4.5,0,0,1001,1014.9
225,2024-05-20T03:44:00,0.5,南西,2.3,南西,14.3,98.3,0,0,2.5,4.5,0,0,1001,1014.9
226,2024-05-20T03:45:00,0.6,南西,2.3,南西,14.3,98.3,0,0,2.5,4.5,0,0,1001.1,1015
227,2024-05-20T03:46:00,0.7,南西,2.3,南西,14.3,98.4,0,0,2.5,4.5,0,0,1001,1014.9
228,2024-05-20T03:47:00,0.8,南西,2.3,南西,14.3,98.4,0,0,2.5,4.5,0,0,1001,1014.9
229,2024-05-20T03:48:00,0.8,南西,2.3,南西,14.4,98.5,0,0,2.5,4.5,0,0,1000.9,1014.8
230,2024-05-20T03:49:00,0.8,南西,2.3,南西,14.4,98.6,0,0,2.5,4.5,0,0,1001,1014.9
231,2024-05-20T03:50:00,0.8,南西,2.3,南西,14.4,98.5,0,0,2.5,4.5,0,0,1001,1014.9
232,2024-05-20T03:51:00,0.8,西南西,2.3,南西,14.5,98.5,0,0,2.5,4.5,0,0,1001,1014.9
233,2024-05-20T03:52:00,0.7,西南西,2.3,南西,14.4,98.5,0,0,2.5,4.5,0,0,1001.1,1015
234,2024-05-20T03:53:00,0.8,西南西,2.3,南西,14.4,98.5,0,0,2.5,4.5,0,0,1001,1014.9
235,2024-05-20T03:54:00,0.7,西,1.8,西南西,14.4,98.5,0,0,2.5,4.5,0,0,1001.1,1015
236,2024-05-20T03:55:00,0.7,西,1.8,西南西,14.5,98.5,0,0,2.5,4.5,0,0,1001,1014.9
237,2024-05-20T03:56:00,0.6,西,1.8,西南西,14.4,98.4,0,0,2.5,4.5,0,0,1001,1014.9
238,2024-05-20T03:57:00,0.5,西,1.5,西,14.3,98.3,0,0,2.5,4.5,0,0,1001,1014.9
239,2024-05-20T03:58:00,0.6,西,1.5,西,14.4,98.4,0,0,2.5,4.5,0,0,1001,1014.9
240,2024-05-20T03:59:00,0.6,西,1.5,西,14.5,98.6,0,0,2.5,4.5,0,0,1001,1014.9
241,2024-05-20T04:00:00,0.6,西南西,1.5,西,14.4,98.4,0,0,2.5,4.5,0,0,1000.9,1014.8
242,2024-05-20T04:01:00,0.6,西南西,1.5,西,14.5,98.5,0,0,2.5,4.5,0,0,1000.9,1014.8
243,2024-05-20T04:02:00,0.6,西南西,1.5,西,14.5,98.5,0,0,2.5,4.5,0,0,1001,1014.9
244,2024-05-20T04:03:00,0.5,西南西,1.5,西,14.4,98.5,0,0,2.5,4.5,0,0,1001,1014.9
245,2024-05-20T04:04:00,0.5,西南西,1.4,西北西,14.2,98.3,0,0,2.5,4.5,0,0,1001,1014.9
246,2024-05-20T04:05:00,0.4,南西,1.1,西南西,14.3,98.4,0,0,2.5,4.5,0,0,1001,1014.9
247,2024-05-20T04:06:00,0.4,南西,1.2,南南西,14.2,98.3,0,0,2.5,4.5,0,0,1001,1014.9
248,2024-05-20T04:07:00,0.4,南西,1.2,南南西,14.2,98.2,0,0,2.5,4.5,0,0,1001,1014.9
249,2024-05-20T04:08:00,0.4,南西,1.2,南南西,14.2,98.3,0,0,2.5,4.5,0,0,1001,1014.9
250,2024-05-20T04:09:00,0.4,南西,1.2,南南西,14.4,98.4,0,0,2.5,4.5,0,0,1001,1014.9
251,2024-05-20T04:10:00,0.4,南西,1.2,南南西,14.4,98.5,0,0,2.5,4.5,0,0,1000.9,1014.8
252,2024-05-20T04:11:00,0.4,南西,1.2,南南西,14.2,98.3,0,0,2.5,4.5,0,0,1000.9,1014.8
253,2024-05-20T04:12:00,0.4,南西,1.2,南南西,14.3,98.3,0,0,2.5,4.5,0,0,1000.9,1014.8
254,2024-05-20T04:13:00,0.5,南南西,1.2,南南西,14.2,98.2,0,0,2.5,4.5,0,0,1000.9,1014.8
255,2024-05-20T04:14:00,0.5,南南西,1.2,南南西,14.3,98.4,0,0,2.5,4.5,0,0,1000.9,1014.8
256,2024-05-20T04:15:00,0.6,南西,1.2,南南西,14.3,98.3,0,0,2.5,4.5,0,0,1000.9,1014.8
257,2024-05-20T04:16:00,0.6,南西,1.6,南南西,14.1,98.2,0,0,2.5,4.5,0,0,1000.8,1014.7
258,2024-05-20T04:17:00,0.6,南南西,1.6,南南西,14.1,98.2,0,0,2.5,4.5,0,0,1000.8,1014.7
259,2024-05-20T04:18:00,0.6,南南西,1.6,南南西,14.1,98.3,0,0,2.5,4.5,0,0,1000.8,1014.7
260,2024-05-20T04:19:00,0.7,南南西,1.6,南南西,14.2,98.3,0,0,2.5,4.5,0,0,1000.9,1014.8
261,2024-05-20T04:20:00,0.8,南南西,1.6,南南西,14.2,98.4,0,0,2.5,4.5,0,0,1000.9,1014.8
262,2024-05-20T04:21:00,0.8,南南西,1.6,南南西,14.1,98.4,0,0,2.5,4.5,0,0,1000.8,1014.7
263,2024-05-20T04:22:00,,"",,"",,,,,,,,,,
264,2024-05-20T04:23:00,0.8,南南西,1.6,南南西,14,98.3,0,0,2.5,4.5,0,0,1000.8,1014.7
265,2024-05-20T04:24:00,0.8,南南西,1.6,南南西,14.1,98.4,0,0,2.5,4.5,0,0,1000.8,1014.7
266,2024-05-20T04:25:00,0.8,南南西,1.6,南南西,14.1,98.4,0,0,2.5,4.5,0,0,1000.9,1014.8
267,2024-05-20T04:26:00,0.7,南南西,1.6,南南西,14.3,98.5,0,0,2.5,4.5,0,0,1000.9,1014.8
268,2024-05-20T04:27:00,0.7,南南西,1.6,南南西,14.3,98.6,0,0,2.5,4.5,0,0,1000.9,1014.8
269,2024-05-20T04:28:00,0.7,南南西,1.6,南南西,14.2,98.5,0,0,2.5,4.5,0,0,1000.8,1014.7
270,2024-05-20T04:29:00,0.7,南南西,1.6,南南西,14.1,98.4,0,0,2.5,4.5,0,0,1000.8,1014.7
271,2024-05-20T04:30:00,0.7,南南西,1.6,南南西,14.1,98.4,0,0,2.5,4.5,0,0,1000.8,1014.7
272,2024-05-20T04:31:00,0.8,南南西,2.4,南,14,98.4,0,0,2.5,4.5,0,0,1000.8,1014.7
273,2024-05-20T04:32:00,0.9,南南西,2.4,南,14,98.4,0,0,2.5,4.5,0,0,1000.8,1014.7
274,2024-05-20T04:33:00,1,南南西,2.4,南,13.9,98.4,0,0,2.5,4.5,0,0,1000.7,1014.6
275,2024-05-20T04:34:00,1,南南西,2.4,南,13.9,98.3,0,0,2.5,4.5,0,0,1000.8,1014.7
276,2024-05-20T04:35:00,1,南南西,2.4,南,14,98.5,0,0,2.5,4.5,0,0,1000.8,1014.7
277,2024-05-20T04:36:00,1.1,南南西,2.4,南,14.1,98.5,0,0,2.5,4.5,0,0,1000.8,1014.7
278,2024-05-20T04:37:00,1.1,南南西,2.4,南,14.3,98.7,0,0,2.5,4.5,0,0,1000.8,1014.7
279,2024-05-20T04:38:00,1,南南西,2.4,南,14.1,98.6,0,0,2.5,4.5,0,0,1000.9,1014.8
280,2024-05-20T04:39:00,1,南南西,2.4,南,14.1,98.5,0,0,2.5,4.5,0,0,1000.8,1014.7
281,2024-05-20T04:40:00,0.9,南南西,2.4,南,14.1,98.5,0,0,2.5,4.5,0,0,1000.8,1014.7
282,2024-05-20T04:41:00,0.8,南南西,2.2,南,14.2,98.5,0,0,2.5,4.5,0,0,1000.9,1014.8
283,2024-05-20T04:42:00,0.6,南南西,2.2,南,14.3,98.6,0,0,2.5,4.5,0,0,1000.9,1014.8
284,2024-05-20T04:43:00,0.6,南南西,1.8,南南東,14,98.5,0,0,2.5,4.5,0,0,1000.9,1014.8
285,2024-05-20T04:44:00,0.6,南南西,1.7,南,14,98.4,0,0,2.5,4.5,0,0,1000.8,1014.7
286,2024-05-20T04:45:00,0.6,南南西,1.7,南,14,98.4,0,0,2.5,4.5,0,0,1000.8,1014.7
287,2024-05-20T04:46:00,0.7,南南西,2.3,南南西,13.9,98.4,0,0,2.5,4.5,0,0,1000.7,1014.6
288,2024-05-20T04:47:00,0.8,南南西,2.8,南南西,13.9,98.4,0,0,2.5,4.5,0,0,1000.8,1014.7
289,2024-05-20T04:48:00,1,南南西,3,南,13.9,98.4,0,0,2.5,4.5,0,0,1000.8,1014.7
290,2024-05-20T04:49:00,1.1,南南西,3,南,13.9,98.3,0,0,2.5,4.5,0,0,1000.8,1014.7
291,2024-05-20T04:50:00,1.3,南,3,南,13.9,98.4,0,0,2.5,4.5,0,0,1000.9,1014.8
292,2024-05-20T04:51:00,1.5,南,3,南,13.9,98.4,0,0,2.5,4.5,0,0,1000.9,1014.8
293,2024-05-20T04:52:00,1.6,南,3,南,13.9,98.4,0,0,2.5,4.5,0,0,1000.9,1014.8
294,2024-05-20T04:53:00,1.6,南,3,南,13.9,98.4,0,0,2.5,4.5,0,0,1000.9,1014.8
295,2024-05-20T04:54:00,1.6,南,3,南,13.9,98.4,0,0,2.5,4.5,0,0,1000.9,1014.8
296,2024-05-20T04:55:00,1.6,南,3,南,13.9,98.4,0,0,2.5,4.5,0,0,1000.9,1014.8
297,2024-05-20T04:56:00,1.7,南,3,南,13.9,98.4,0,0,2.5,4.5,0,0,1000.9,1014.8
298,2024-05-20T04:57:00,1.6,南,3,南,13.9,98.4,0,0,2.5,4.5,0,0,1001,1014.9
299,2024-05-20T04:58:00,1.6,南,3,南,13.9,98.4,0,0,2.5,4.5,0,0,1001,1014.9
300,2024-05-20T04:59:00,1.6,南,3,南,13.9,98.4,0,0,2.5,4.5,0,0,1001.1,1015
301,2024-05-20T05:00:00,1.6,南,3,南,13.9,98.4,0,0,2.5,4.5,0,0,1001.1,1015
302,2024-05-20T05:01:00,1.6,南,3.1,南,13.9,98.5,0,0,2.5,4.5,0,0,1001.2,1015.1
303,2024-05-20T05:02:00,1.7,南,3.1,南,13.9,98.5,0,0,2.5,4.5,0,0,1001.1,1015
304,2024-05-20T05:03:00,1.7,南,3.3,南,13.8,98.5,0,0,2.5,4.5,0,0,1001.1,1015
305,2024-05-20T05:04:00,1.7,南,3.3,南,13.8,98.5,0,0,2.5,4.5,0,0,1001.1,1015
306,2024-05-20T05:05:00,1.8,南,3.6,南,13.8,98.5,0,0,2.5,4.5,0,0,1001.2,1015.1
307,2024-05-20T05:06:00,1.9,南,3.6,南,13.8,98.5,0,0,2.5,4.5,0,0,1001.2,1015.1